"Time","Temp","Dewpoint","Humidity","Pressure","Direction","Speed","Gust","Precip","PrecipRate"
"00:04:58","34.8","25.2","67.7","30.04","269","0.1","1.2","0.00","0.00"
"00:09:56","34.6","25.1","67.8","30.04","269","0","0","0.00","0.00"
"00:14:57","34.3","25","68.6","30.04","269","0","0","0.00","0.00"
"00:19:59","33.7","25.1","70.4","30.04","269","0","0","0.00","0.00"
"00:24:59","33.1","25","71.8","30.04","269","0","1.2","0.00","0.00"
"00:29:59","32.5","24.7","72.7","30.05","269","0","1.2","0.00","0.00"
"00:34:57","32.1","24.4","73","30.05","269","0","0","0.00","0.00"
"00:39:59","32","24.6","74","30.05","269","0","0","0.00","0.00"
"00:44:56","32.2","24.5","72.9","30.05","269","0","0","0.00","0.00"
"00:49:56","33","24.8","71.6","30.05","250","0.7","4.8","0.00","0.00"
"00:54:58","33.6","24.9","70.3","30.05","250","0","1.2","0.00","0.00"
"00:59:59","33.7","25.2","70.7","30.05","258","1.2","8.4","0.00","0.00"
"01:04:59","34.1","25.2","69.7","30.05","271","2","8.4","0.00","0.00"
"01:09:59","34.7","25.3","68.3","30.05","302","1.7","3.6","0.00","0.00"
"01:14:56","35.1","25.4","67.5","30.06","275","2.6","6","0.00","0.00"
"01:19:57","35.2","25.3","67","30.06","279","1.8","3.6","0.00","0.00"
"01:24:58","35.2","25.3","67","30.06","279","1.4","3.6","0.00","0.00"
"01:29:56","35","25.1","67","30.07","288","0.9","3.6","0.00","0.00"
"01:34:57","34.7","24.9","67.1","30.07","289","0.2","1.2","0.00","0.00"
"01:39:59","34.1","24.8","68.5","30.07","289","1.2","2.4","0.00","0.00"
"01:44:59","33.4","24.8","70.2","30.07","289","0.1","1.2","0.00","0.00"
"01:49:56","32.9","24.5","71.1","30.07","289","0","0","0.00","0.00"
"01:54:58","32.3","24.4","72.5","30.07","289","0","0","0.00","0.00"
"01:59:59","31.7","24","73","30.07","289","0","0","0.00","0.00"
"02:04:56","31.4","23.9","73.4","30.07","289","0","0","0.00","0.00"
"02:09:56","31.2","24.1","74.3","30.07","289","0","0","0.00","0.00"
"02:14:57","30.9","23.9","75.2","30.07","289","0","0","0.00","0.00"
"02:19:58","30.4","23.7","76","30.07","289","0","0","0.00","0.00"
"02:24:59","30.1","23.6","76.6","30.07","289","0","0","0.00","0.00"
"02:29:59","29.7","23.5","77.1","30.07","289","0","0","0.00","0.00"
"02:34:57","29.4","23.4","78","30.07","289","0","0","0.00","0.00"
"02:39:58","29.2","23.2","78","30.07","289","0","0","0.00","0.00"
"02:44:59","28.9","23.1","78.7","30.07","289","0","0","0.00","0.00"
"02:49:56","28.6","23.1","79.5","30.07","289","0","0","0.00","0.00"
"02:54:58","28.4","23.1","80.1","30.07","289","0.7","3.6","0.00","0.00"
"02:59:58","28.1","23.2","81.8","30.07","289","1","3.6","0.00","0.00"
"03:04:58","27.7","22.9","82","30.07","289","0","1.2","0.00","0.00"
"03:09:57","27.6","23","82.7","30.07","288","0.3","2.4","0.00","0.00"
"03:14:58","27.5","23","83","30.07","288","0.5","2.4","0.00","0.00"
"03:19:59","27.5","23.1","83.3","30.07","288","0.4","1.2","0.00","0.00"
"03:24:56","27.5","23.2","83.8","30.07","288","0","1.2","0.00","0.00"
"03:29:56","27.4","23.3","84.1","30.07","290","1.5","3.6","0.00","0.00"
"03:34:57","27.6","23.7","85","30.07","314","2","4.8","0.00","0.00"
"03:39:59","27.8","23.9","85","30.07","321","0.6","2.4","0.00","0.00"
"03:44:59","27.9","24","85","30.08","321","0","0","0.00","0.00"
"03:49:56","28","24.1","85","30.08","321","0","0","0.00","0.00"
"03:54:56","28.1","24.2","85","30.08","321","0.7","2.4","0.00","0.00"
"03:59:57","28.3","24.6","85.7","30.08","321","2.2","3.6","0.00","0.00"
"04:04:56","28.4","24.6","85.5","30.07","321","0.3","3.5","0.00","0.00"
"04:09:59","28.5","24.5","84.6","30.07","321","0.1","1.2","0.00","0.00"
"04:14:57","28.7","24.8","85","30.08","321","0","1.2","0.00","0.00"
"04:19:58","28.7","24.7","84.6","30.08","321","0","0","0.00","0.00"
"04:24:59","28.7","24.8","84.9","30.08","321","0","0","0.00","0.00"
"04:29:56","28.9","25","85","30.08","321","0.2","1.2","0.00","0.00"
"04:34:57","29","24.9","84.3","30.07","321","0","0","0.00","0.00"
"04:39:58","29.1","24.8","83.7","30.07","321","0","0","0.00","0.00"
"04:44:58","29.1","24.6","83","30.07","321","0","0","0.00","0.00"
"04:49:56","29","24.5","83","30.07","321","0","0","0.00","0.00"
"04:54:57","28.8","24.5","83.8","30.07","321","0","0","0.00","0.00"
"04:59:58","28.6","24.4","84","30.08","321","0","0","0.00","0.00"
"05:04:59","28.4","24.3","84.3","30.08","321","0","0","0.00","0.00"
"05:09:59","28.1","24.2","85","30.08","321","0","0","0.00","0.00"
"05:14:56","28","24.1","85","30.09","321","0.4","2.4","0.00","0.00"
"05:19:57","28.1","24.4","85.6","30.09","321","0.1","1.2","0.00","0.00"
"05:24:57","28.1","24.5","86","30.09","321","0.1","1.2","0.00","0.00"
"05:29:58","28.2","24.6","86","30.10","321","1.3","3.6","0.00","0.00"
"05:34:59","28.7","24.8","85.3","30.10","321","1.6","3.6","0.00","0.00"
"05:39:59","29","24.9","84.3","30.10","321","0.4","3.5","0.00","0.00"
"05:44:56","29.2","24.8","83.3","30.10","321","0.1","1.2","0.00","0.00"
"05:49:57","29.4","24.9","83","30.10","321","0","0","0.00","0.00"
"05:54:58","29.5","25","83","30.10","321","0","0","0.00","0.00"
"05:59:58","29.7","25.5","84.3","30.11","321","0","0","0.00","0.00"
"06:04:59","29.6","25.3","83.7","30.11","321","0.1","1.2","0.00","0.00"
"06:09:56","29.7","25.2","82.8","30.11","321","0.4","2.4","0.00","0.00"
"06:14:57","29.8","25","82","30.12","321","1.2","2.4","0.00","0.00"
"06:19:57","29.9","25","81.7","30.12","321","0.3","2.4","0.00","0.00"
"06:24:57","30","24.9","81","30.12","321","0","0","0.00","0.00"
"06:29:58","30","24.9","81","30.13","321","0","0","0.00","0.00"
"06:34:56","29.9","24.9","81.1","30.13","321","0","0","0.00","0.00"
"06:39:58","29.8","24.9","81.6","30.13","321","0","0","0.00","0.00"
"06:44:58","29.6","24.8","82","30.14","321","0","0","0.00","0.00"
"06:49:58","29.4","24.6","81.8","30.14","321","0","0","0.00","0.00"
"06:54:59","29.3","24.2","81","30.14","321","0","0","0.00","0.00"
"06:59:56","29.2","24.1","81","30.15","321","0","0","0.00","0.00"
"07:04:57","29.2","24.3","81.4","30.15","321","0","0","0.00","0.00"
"07:09:57","29.2","24.6","82.6","30.15","321","0.4","2.4","0.00","0.00"
"07:14:58","29.5","24.6","81.9","30.15","283","1.1","2.4","0.00","0.00"
"07:19:58","30.1","24.9","80.5","30.15","272","2.1","3.6","0.00","0.00"
"07:24:58","30.6","24.9","79.3","30.15","303","2.6","4.8","0.00","0.00"
"07:29:58","31.1","25","78","30.16","326","3.1","6","0.00","0.00"
"07:34:59","31.3","25.1","77.8","30.16","278","3.1","5.8","0.00","0.00"
"07:39:59","31.3","24.9","77","30.16","314","3.2","6","0.00","0.00"
"07:44:56","31.7","24.9","75.8","30.17","307","4.2","12","0.00","0.00"
"07:49:56","32.4","24.9","73.5","30.17","307","4.1","8.4","0.00","0.00"
"07:54:56","33.1","24.7","70.9","30.17","282","3.9","9.6","0.00","0.00"
"07:59:58","33.6","24.7","69.5","30.18","243","2.8","6","0.00","0.00"
"08:04:58","33.9","24.5","68.4","30.18","278","3.1","7.2","0.00","0.00"
"08:09:58","34.1","24.5","67.8","30.18","283","3.1","7.2","0.00","0.00"
"08:14:59","34.2","24.4","67.1","30.18","278","2.8","5.8","0.00","0.00"
"08:19:59","34","24.2","67","30.18","283","1.9","4.8","0.00","0.00"
"08:24:59","34","24.2","66.8","30.18","308","2.2","4.8","0.00","0.00"
"08:29:59","34.1","24","66.3","30.19","254","0.6","3.5","0.00","0.00"
"08:34:59","34","24.1","66.6","30.19","254","0.1","1.2","0.00","0.00"
"08:39:55","33.9","24.1","66.9","30.19","254","0","0","0.00","0.00"
"08:44:59","33.8","24.3","67.8","30.20","254","0.1","1.2","0.00","0.00"
"08:49:59","33.8","24.2","67.4","30.20","254","0.2","2.4","0.00","0.00"
"08:54:59","34.3","24.3","66.6","30.20","254","0","0","0.00","0.00"
"08:59:59","35.5","25","65.1","30.20","255","0.6","2.4","0.00","0.00"
"09:04:56","36.9","25.3","62.5","30.20","261","1.7","3.6","0.00","0.00"
"09:09:59","37.6","25","60","30.20","302","3.1","6","0.00","0.00"
"09:14:59","38","24.8","58.7","30.21","296","3.4","7.2","0.00","0.00"
"09:19:59","38.4","24.4","56.7","30.21","316","3.1","7.2","0.00","0.00"
"09:24:58","38.7","24.5","56.4","30.21","304","4.3","8.4","0.00","0.00"
"09:29:57","38.8","23.9","54.9","30.21","309","3.6","10.8","0.00","0.00"
"09:34:57","38.9","23.3","53.1","30.21","302","3.7","18","0.00","0.00"
"09:39:57","38.9","23.5","53.8","30.21","286","4.2","18.4","0.00","0.00"
"09:44:56","39.2","23.5","53.1","30.21","294","4.6","12","0.00","0.00"
"09:49:59","39.3","23.1","52","30.21","283","2.9","8.1","0.00","0.00"
"09:54:59","39.9","23.5","51.7","30.21","305","5","15.6","0.00","0.00"
"09:59:59","39.5","22.6","50.4","30.22","345","6.6","16.1","0.00","0.00"
"10:04:59","39.7","23.1","51","30.22","308","5.2","13.2","0.00","0.00"
"10:09:57","39.7","22.8","50.5","30.22","281","5.9","15","0.00","0.00"
"10:14:57","39.6","22.4","50","30.22","313","6.5","16.1","0.00","0.00"
"10:19:56","39.5","22.6","50.4","30.22","295","4.8","12","0.00","0.00"
"10:24:56","40.3","23.3","50.3","30.22","274","4.7","9.6","0.00","0.00"
"10:29:56","40.3","22.6","49","30.22","290","5.5","13.2","0.00","0.00"
"10:34:56","39.5","22.6","50.6","30.21","326","8.5","18.4","0.00","0.00"
"10:39:56","38.9","22","50.3","30.21","318","6.5","15","0.00","0.00"
"10:44:59","38.6","22.2","51.4","30.22","288","3.5","12","0.00","0.00"
"10:49:58","38.9","22.4","51.3","30.22","318","4.6","15","0.00","0.00"
"10:54:57","38.7","22.3","51.5","30.22","311","4.6","12","0.00","0.00"
"10:59:57","40.4","24.2","52.2","30.22","304","4.8","15","0.00","0.00"
"11:04:57","40.9","23.9","50.5","30.21","302","6.5","16.1","0.00","0.00"
"11:09:56","40.3","23.2","50.2","30.21","275","6.1","16.1","0.00","0.00"
"11:14:56","39.2","22.7","51.3","30.21","317","4.7","13.2","0.00","0.00"
"11:19:59","38.9","22.6","51.7","30.21","297","6.8","18.4","0.00","0.00"
"11:24:58","38.5","22.6","52.3","30.21","290","6","16.1","0.00","0.00"
"11:29:58","38.3","22.6","52.8","30.21","293","5.5","13.2","0.00","0.00"
"11:34:57","40","23.9","52.3","30.21","299","5.3","12.7","0.00","0.00"
"11:39:57","40.6","23.6","50.3","30.21","308","6.4","13.2","0.00","0.00"
"11:44:56","39.5","22.9","51.2","30.21","297","4.1","8.4","0.00","0.00"
"11:49:56","40.2","24.5","53.2","30.20","243","4.2","8.1","0.00","0.00"
"11:54:56","41.6","25.3","52","30.20","241","6.9","12","0.00","0.00"
"11:59:59","40.7","24.2","51.3","30.20","242","5.2","12","0.00","0.00"
"12:04:59","40.7","24.6","52.4","30.19","246","3.6","7.2","0.00","0.00"
"12:09:58","41.1","23.8","50","30.19","297","5.8","15.6","0.00","0.00"
"12:14:58","40.7","23.5","50","30.19","276","4.8","16.1","0.00","0.00"
"12:19:58","40.5","23.3","50.1","30.18","281","5","14.4","0.00","0.00"
"12:24:57","41.2","24.6","51.4","30.18","270","5.7","12","0.00","0.00"
"12:29:57","40.9","23.9","50.5","30.18","266","5","12","0.00","0.00"
"12:34:57","41.7","24.9","51.1","30.18","229","6","11.5","0.00","0.00"
"12:39:58","41.9","24.4","49.6","30.18","234","3.4","8.1","0.00","0.00"
"12:44:56","41.6","24.5","50.4","30.18","227","4.3","8.4","0.00","0.00"
"12:49:57","41.6","24.2","49.8","30.17","235","7.5","16.1","0.00","0.00"
"12:54:57","42.4","24.8","49.5","30.17","251","5.4","13.2","0.00","0.00"
"12:59:57","42.6","24.5","48.5","30.17","240","4.4","12.7","0.00","0.00"
"13:04:57","43.2","24.9","48.1","30.16","237","7.9","16.1","0.00","0.00"
"13:09:57","43","24.3","47.4","30.16","236","8.2","18","0.00","0.00"
"13:14:57","43.4","24.5","46.9","30.16","239","8.8","18.4","0.00","0.00"
"13:19:56","43.6","24.3","46.2","30.16","237","5.7","15","0.00","0.00"
"13:24:59","43.4","23.4","44.9","30.16","257","5.3","10.8","0.00","0.00"
"13:29:59","43.9","24.9","46.8","30.16","239","6.4","13.2","0.00","0.00"
"13:34:59","43.7","23.3","44.2","30.15","247","8.4","15.6","0.00","0.00"
"13:39:58","44.1","23.4","43.8","30.15","283","6.8","16.1","0.00","0.00"
"13:44:58","43.3","23.2","44.7","30.15","241","8","15","0.00","0.00"
"13:49:57","42.1","22.6","45.6","30.15","223","8.6","16.1","0.00","0.00"
"13:54:57","43.4","23.7","45.4","30.15","221","7.6","15","0.00","0.00"
"13:59:56","43.7","23.2","44.1","30.15","224","6.1","15","0.00","0.00"
"14:04:57","43.8","23.5","44.5","30.15","246","6.1","12","0.00","0.00"
"14:09:56","43.4","22.7","43.5","30.15","221","5","10.8","0.00","0.00"
"14:14:56","44.1","23.3","43.6","30.15","249","4.7","9.2","0.00","0.00"
"14:19:56","44.2","23.4","43.6","30.15","301","5.3","12","0.00","0.00"
"14:24:59","42.8","21.7","42.7","30.15","271","5.7","11.5","0.00","0.00"
"14:29:59","42.2","21.8","44.1","30.15","238","4.3","8.1","0.00","0.00"
"14:34:59","42.6","23.1","45.8","30.15","223","4.1","8.4","0.00","0.00"
"14:39:59","43.6","22.5","43","30.15","260","4.6","7.2","0.00","0.00"
"14:44:59","42.6","21.1","42.1","30.15","250","4.8","12","0.00","0.00"
"14:49:58","43","22.7","44.2","30.15","241","5.6","13.2","0.00","0.00"
"14:54:57","43.3","21.9","42.3","30.15","266","5.6","13.2","0.00","0.00"
"14:59:57","43.9","22.9","43.2","30.16","248","4.8","10.8","0.00","0.00"
"15:04:57","43.9","21.6","40.9","30.16","251","6.5","10.8","0.00","0.00"
"15:09:56","44","22.8","42.8","30.16","227","5.1","8.1","0.00","0.00"
"15:14:56","44.7","23.3","42.6","30.16","220","4","8.4","0.00","0.00"
"15:19:59","43.8","21.8","41.4","30.16","250","5.4","10.8","0.00","0.00"
"15:24:58","43.7","22","41.8","30.16","244","3.8","8.4","0.00","0.00"
"15:29:57","44.3","22.4","41.5","30.16","224","2.1","6","0.00","0.00"
"15:34:57","44.2","22.8","42.4","30.16","223","4.6","8.4","0.00","0.00"
"15:39:57","43.8","21.8","41.5","30.16","215","6.2","10.8","0.00","0.00"
"15:44:56","43.7","22","42","30.16","225","3.2","7.2","0.00","0.00"
"15:49:56","43.8","21.6","41","30.16","213","3","7.2","0.00","0.00"
"15:54:59","43.9","21.7","41.1","30.16","215","4","7.2","0.00","0.00"
"15:59:59","43.5","21.3","41","30.16","201","3.2","10.8","0.00","0.00"
"16:04:59","43.3","21.6","41.8","30.15","207","5.7","10.4","0.00","0.00"
"16:09:58","43.2","21.1","41.1","30.15","185","2.1","4.6","0.00","0.00"
"16:14:59","43","21.9","42.7","30.16","235","5.1","12","0.00","0.00"
"16:19:59","42.5","21.3","42.5","30.16","225","3.8","7.2","0.00","0.00"
"16:24:58","42.5","20.7","41.6","30.16","203","3.7","6","0.00","0.00"
"16:29:57","42.4","20.6","41.5","30.17","205","3.7","7.2","0.00","0.00"
"16:34:57","42.3","21","42.5","30.17","243","4.3","9.6","0.00","0.00"
"16:39:56","42","20.8","42.5","30.17","216","5.1","9.6","0.00","0.00"
"16:44:59","41.9","20.9","42.8","30.17","247","4.7","8.4","0.00","0.00"
"16:49:59","41.9","20.9","42.8","30.17","244","3.7","8.4","0.00","0.00"
"16:54:58","41.7","20.8","42.8","30.17","226","2.1","4.6","0.00","0.00"
"16:59:57","41.6","20.7","43","30.17","217","3.3","7.2","0.00","0.00"
"17:04:57","41.3","20.5","43.2","30.17","214","3.7","7.2","0.00","0.00"
"17:09:56","40.9","20.1","43","30.17","217","3.6","7.2","0.00","0.00"
"17:14:59","40.5","20.2","43.8","30.17","216","4","6.9","0.00","0.00"
"17:19:59","40.2","20.1","44.3","30.17","191","3.7","6","0.00","0.00"
"17:24:58","39.9","20.2","44.8","30.17","191","3.2","6","0.00","0.00"
"17:29:59","39.6","20.2","45.3","30.17","177","2","4.8","0.00","0.00"
"17:34:59","39.4","20.2","45.9","30.17","177","1.3","4.6","0.00","0.00"
"17:39:56","39.2","20","45.8","30.17","178","0.9","3.5","0.00","0.00"
"17:44:56","38.9","20.2","46.6","30.18","178","1.4","2.4","0.00","0.00"
"17:49:56","38.6","20.1","47","30.18","178","1.5","3.6","0.00","0.00"
"17:54:58","38.3","20.2","47.8","30.18","178","0.9","2.4","0.00","0.00"
"17:59:58","38.1","20.4","48.8","30.18","177","0.5","2.4","0.00","0.00"
"18:04:59","37.8","20.3","49","30.18","177","0.6","2.4","0.00","0.00"
"18:09:59","37.4","20.7","50.5","30.18","177","0.3","1.2","0.00","0.00"
"18:14:59","37.1","20.3","50.3","30.19","177","0.5","2.4","0.00","0.00"
"18:19:56","37","20.5","51","30.19","177","0.1","1.2","0.00","0.00"
"18:24:57","36.6","20.6","51.9","30.19","177","0","1.2","0.00","0.00"
"18:29:57","36.2","21","53.6","30.20","177","0","0","0.00","0.00"
"18:34:58","35.6","21.1","55.2","30.20","177","0.3","2.4","0.00","0.00"
"18:39:59","35.1","21","56","30.20","177","0","1.2","0.00","0.00"
"18:44:59","34.9","20.5","55.2","30.20","177","0","1.2","0.00","0.00"
"18:49:56","34.7","20.3","55.2","30.20","177","0","0","0.00","0.00"
"18:54:58","34.5","21.1","57.8","30.20","177","0","0","0.00","0.00"
"18:59:58","33.9","22.2","62","30.21","177","0","0","0.00","0.00"
"19:04:59","33.2","21.6","62.2","30.21","177","0.1","1.2","0.00","0.00"
"19:09:59","32.5","21.5","63.4","30.21","177","0","0","0.00","0.00"
"19:14:59","32.1","21.3","64.1","30.21","177","0","0","0.00","0.00"
"19:19:56","31.5","21.1","65","30.21","177","0","0","0.00","0.00"
"19:24:56","31","20.2","64","30.21","177","0","0","0.00","0.00"
"19:29:57","30.7","20.3","65","30.21","177","0","0","0.00","0.00"
"19:34:58","30.4","20.2","65.4","30.20","177","0","1.2","0.00","0.00"
"19:39:59","30.2","20.7","67.5","30.20","177","0.2","1.2","0.00","0.00"
"19:44:56","29.8","21.4","70.5","30.21","177","0.1","1.2","0.00","0.00"
"19:49:56","29.5","20.9","70","30.21","177","0","0","0.00","0.00"
"19:54:57","29.2","21.1","71.2","30.21","177","0","0","0.00","0.00"
"19:59:57","29","21.3","72.5","30.21","177","0","1.2","0.00","0.00"
"20:04:59","28.9","21","72.1","30.21","177","0","1.2","0.00","0.00"
"20:09:58","28.8","21.2","72.8","30.21","177","0","0","0.00","0.00"
"20:14:56","28.7","21.3","73.4","30.21","177","0","0","0.00","0.00"
"20:19:56","28.7","21.2","73.4","30.20","177","0.1","1.2","0.00","0.00"
"20:24:57","28.5","21","73","30.20","177","0.6","2.4","0.00","0.00"
"20:29:57","28.4","20.8","73","30.20","177","0","2.3","0.00","0.00"
"20:34:58","28.2","20.8","73.3","30.20","177","0","0","0.00","0.00"
"20:39:59","28.1","20.8","73.7","30.20","177","0","0","0.00","0.00"
"20:44:56","28.1","20.9","74.1","30.20","177","0","0","0.00","0.00"
"20:49:56","28","21.1","75","30.20","177","0","0","0.00","0.00"
"20:54:57","27.9","21.1","75.4","30.20","177","0","0","0.00","0.00"
"20:59:57","27.8","21.4","76.7","30.20","177","0","0","0.00","0.00"
"21:04:58","27.8","20.9","75.2","30.19","177","0","0","0.00","0.00"
"21:09:57","28.5","20.8","72.5","30.19","177","0","0","0.00","0.00"
"21:14:58","28.8","21.4","73.4","30.19","177","0","0","0.00","0.00"
"21:19:58","28.8","20.9","72.1","30.19","177","0","0","0.00","0.00"
"21:24:59","28.7","21.3","73.6","30.19","177","0","0","0.00","0.00"
"21:29:59","28.3","20.8","73.1","30.19","177","0","0","0.00","0.00"
"21:34:56","28","20.5","73","30.19","177","0","0","0.00","0.00"
"21:39:57","27.8","20.5","73.5","30.19","177","0","0","0.00","0.00"
"21:44:58","27.8","20","72.4","30.19","177","0","0","0.00","0.00"
"21:49:57","28.1","20.1","71.7","30.19","176","0.1","3.6","0.00","0.00"
"21:54:57","28.7","20.3","70.5","30.19","176","1.1","3.5","0.00","0.00"
"21:59:57","29.3","20.4","69.2","30.19","176","0.7","2.4","0.00","0.00"
"22:04:58","29.7","20.6","68.4","30.18","176","1","3.6","0.00","0.00"
"22:09:57","30","20.7","68","30.18","170","1.2","3.6","0.00","0.00"
"22:14:58","29.8","21.1","69.9","30.18","165","0.9","2.4","0.00","0.00"
"22:19:58","29.5","20.7","69.5","30.18","165","0.6","2.4","0.00","0.00"
"22:24:58","29.4","20.8","70","30.18","165","0.7","2.4","0.00","0.00"
"22:29:58","29.2","20.8","70.6","30.20","203","2.6","4.8","0.00","0.00"
"22:34:57","28.9","20.7","70.9","30.20","217","1","3.5","0.00","0.00"
"22:39:57","28.9","20.2","69.6","30.20","217","0.3","1.2","0.00","0.00"
"22:44:58","29.4","20.5","69","30.20","217","0","0","0.00","0.00"
"22:49:58","29.4","20.8","69.9","30.19","216","0.1","2.4","0.00","0.00"
"22:54:58","29.2","20.4","69.2","30.19","216","0.3","2.3","0.00","0.00"
"22:59:59","29.3","20.4","69","30.19","216","0.7","2.4","0.00","0.00"
"23:04:56","29.3","20.6","69.6","30.19","216","0","1.2","0.00","0.00"
"23:09:59","29.1","20.6","70.3","30.19","216","0","0","0.00","0.00"
"23:14:56","28.9","20.3","70","30.19","216","0.2","2.4","0.00","0.00"
"23:19:56","29","20.4","70","30.18","214","0.3","2.4","0.00","0.00"
"23:24:57","29.2","20.6","70","30.18","185","0.9","2.4","0.00","0.00"
"23:29:57","29.3","20.7","70","30.18","189","0.6","7.2","0.00","0.00"
"23:34:57","29.5","20.8","69.9","30.18","194","1.4","6.9","0.00","0.00"
"23:39:57","29.7","20.8","69","30.18","192","0.7","3.6","0.00","0.00"
"23:44:57","29.9","21","69","30.18","190","1.1","3.6","0.00","0.00"
"23:49:56","30.1","21.1","68.8","30.18","190","0.8","3.5","0.00","0.00"
